This demonstration page uses our WeatherBlox Daily Observations layout. Learn more.

Left ArrowRight Arrow

Hourly Observations for October 1, 2021

Temp ( °F °C ) Dew Point ( °F °C ) Humidity (%) Winds ( mph kmh ) Pressure ( in mb ) Visibility ( mi km ) Precip ( " mm )
12:53 am 00:53 Clear 67 19.4 65 18.3 93 93 Calm 30.12 1020 7 11 0.00 0.00
1:53 am 01:53 Clear 66 18.9 64 17.8 93 93 NE 3 6 30.11 1020 8 13 0.00 0.00
2:53 am 02:53 Clear with Mist and Fog 64 17.8 63 17.2 96 96 Calm 30.12 1020 4 6 0.00 0.00
3:53 am 03:53 Clear 66 18.9 64 17.8 93 93 Calm 30.12 1020 9 14 0.00 0.00
4:53 am 04:53 Clear with Mist and Fog 64 17.8 62 16.7 93 93 NNE 3 6 30.12 1020 5 8 0.00 0.00
5:53 am 05:53 Clear 63 17.2 62 16.7 97 97 Calm 30.14 1021 7 11 0.00 0.00
6:53 am 06:53 Clear 65 18.3 63 17.2 93 93 Calm 30.16 1021 10 16 0.00 0.00
7:53 am 07:53 Sunny with Mist and Fog 63 17.2 62 16.7 97 97 Calm 30.18 1022 6 10 0.00 0.00
8:53 am 08:53 Sunny 67 19.4 65 18.3 93 93 Calm 30.18 1022 7 11 0.00 0.00
9:53 am 09:53 Sunny 73 22.8 67 19.4 81 81 Calm 30.19 1022 10 16 0.00 0.00
10:53 am 10:53 Sunny 76 24.4 67 19.4 74 74 VRB 3 6 30.19 1022 10 16 0.00 0.00
11:53 am 11:53 Mostly Sunny 80 26.7 65 18.3 60 60 undefined N/A 30.19 1022 10 16 0.00 0.00
12:53 pm 12:53 Mostly Sunny 81 27.2 64 17.8 57 57 SSW 7 11 30.19 1022 10 16 0.00 0.00
1:53 pm 13:53 Mostly Cloudy 81 27.2 63 17.2 54 54 ESE 3 6 30.17 1022 10 16 0.00 0.00
2:53 pm 14:53 Mostly Sunny 84 28.9 63 17.2 49 49 undefined N/A 30.15 1021 10 16 0.00 0.00
3:53 pm 15:53 Partly Cloudy 84 28.9 61 16.1 46 46 ESE 7 11 30.14 1021 10 16 0.00 0.00
4:53 pm 16:53 Sunny 83 28.3 62 16.7 49 49 SSE 6 9 30.14 1021 10 16 0.00 0.00
5:53 pm 17:53 Sunny 83 28.3 62 16.7 49 49 SSE 7 11 30.13 1020 10 16 0.00 0.00
6:53 pm 18:53 Mostly Sunny 81 27.2 64 17.8 57 57 SE 5 7 30.14 1021 10 16 0.00 0.00
7:53 pm 19:53 Clear 78 25.6 65 18.3 64 64 Calm 30.16 1021 10 16 0.00 0.00
8:53 pm 20:53 Clear 71 21.7 66 18.9 84 84 Calm 30.17 1022 10 16 0.00 0.00
9:53 pm 21:53 Clear 69 20.6 66 18.9 90 90 Calm 30.17 1022 10 16 0.00 0.00
10:53 pm 22:53 Clear 68 20 66 18.9 93 93 Calm 30.17 1022 10 16 0.00 0.00
11:53 pm 23:53 Clear 68 20 66 18.9 93 93 Calm 30.17 1022 10 16 0.00 0.00

Powered by AerisWeather